Weather History for Metlakatla, AK

Change the Weather History Date:

Tuesday, November 20, 2012

  Actual Average Record
Temperature  
Mean Temperature 42 °F -  
Max Temperature 46 °F 42 °F 51 °F (2000)
Min Temperature 37 °F 36 °F 19 °F (1996)
Degree Days  
Heating Degree Days 24    
Moisture  
Dew Point 31 °F    
Average Humidity 64    
Maximum Humidity 87    
Minimum Humidity 46    
Precipitation  
Precipitation 0.00 in - - ()
Sea Level Pressure  
Sea Level Pressure 29.39 in    
Wind  
Wind Speed 10 mph (East)    
Max Wind Speed 24 mph    
Max Gust Speed 33 mph    
Visibility 10 miles    
Events      
Averages and records for this station are not official NWS values.
T = Trace of Precipitation, MM = Missing Value Source: NWS Daily Summary

Daily Weather History Graph

Daily Weather History Graph

Search for Another Location

Airport:

Trip Planner

Search our weather history database for the weather conditions in past years. The results will help you decide how hot, cold, wet, or windy it might be!

Date:

Astronomy

Nov. 20, 2012 Rise Set
Actual Time 7:29 AM AKST 3:33 PM AKST
Civil Twilight 6:47 AM AKST 4:15 PM AKST
Nautical Twilight 6:02 AM AKST 5:01 PM AKST
Astronomical Twilight 5:19 AM AKST 5:44 PM AKST
Moon 12:30 PM AKST (11/20) 11:56 PM AKST (11/20)
Length of Visible Light 9h 28m
Length of Day
8h 03m
First Quarter, 53% of the Moon is Illuminated
Nov 20
First Quarter
Nov 28
Full
Dec 6
Last Quarter
Dec 12
New
Dec 19
First Quarter

Hourly Weather History & Observations

Time (AKST) Temp. Windchill Dew Point Humidity Pressure Visibility Wind Dir Wind Speed Gust Speed Precip Events Conditions
12:16 AM 42.8 °F 40.1 °F 33.8 °F 70% 29.42 in 10.0 mi SSE 4.6 mph - N/A   Mostly Cloudy
12:36 AM 42.8 °F 39.3 °F 33.8 °F 70% 29.42 in 10.0 mi SE 5.8 mph - N/A   Mostly Cloudy
12:56 AM 42.8 °F 38.0 °F 33.8 °F 70% 29.43 in 10.0 mi ESE 8.1 mph - N/A   Partly Cloudy
1:16 AM 42.8 °F 38.6 °F 30.2 °F 61% 29.44 in 10.0 mi SE 6.9 mph - N/A   Partly Cloudy
1:36 AM 42.8 °F - 32.0 °F 66% 29.45 in 10.0 mi Calm Calm - N/A   Partly Cloudy
1:56 AM 42.8 °F - 33.8 °F 70% 29.45 in 10.0 mi Calm Calm - N/A   Clear
2:16 AM 44.6 °F - 33.8 °F 66% 29.46 in 10.0 mi Calm Calm - N/A   Scattered Clouds
2:36 AM 42.8 °F - 32.0 °F 66% 29.46 in 10.0 mi Calm Calm - N/A   Scattered Clouds
2:56 AM 42.8 °F 40.1 °F 33.8 °F 70% 29.46 in 10.0 mi ENE 4.6 mph - N/A   Overcast
3:16 AM 42.8 °F 36.6 °F 35.6 °F 76% 29.46 in 10.0 mi East 11.5 mph - N/A   Mostly Cloudy
3:36 AM 42.8 °F 36.6 °F 35.6 °F 76% 29.46 in 10.0 mi ENE 11.5 mph - N/A   Partly Cloudy
3:56 AM 42.8 °F 36.6 °F 33.8 °F 70% 29.46 in 10.0 mi East 11.5 mph - N/A   Partly Cloudy
4:16 AM 42.8 °F 36.6 °F 33.8 °F 70% 29.46 in 10.0 mi East 11.5 mph 16.1 mph N/A   Partly Cloudy
4:36 AM 42.8 °F 37.5 °F 33.8 °F 70% 29.46 in 10.0 mi East 9.2 mph 16.1 mph N/A   Clear
4:56 AM 42.8 °F 37.5 °F 33.8 °F 70% 29.46 in 10.0 mi East 9.2 mph - N/A   Clear
5:16 AM 42.8 °F 37.5 °F 32.0 °F 66% 29.46 in 10.0 mi NE 9.2 mph - N/A   Clear
5:36 AM 41.0 °F 35.2 °F 35.6 °F 81% 29.45 in 10.0 mi ENE 9.2 mph - N/A   Clear
5:56 AM 41.0 °F 34.3 °F 33.8 °F 76% 29.44 in 10.0 mi ENE 11.5 mph - N/A   Partly Cloudy
6:16 AM 41.0 °F 35.8 °F 33.8 °F 76% 29.44 in 10.0 mi ENE 8.1 mph - N/A   Partly Cloudy
6:36 AM 42.8 °F 36.2 °F 33.8 °F 70% 29.44 in 10.0 mi NE 12.7 mph 16.1 mph N/A   Mostly Cloudy
6:56 AM 42.8 °F 38.0 °F 33.8 °F 70% 29.43 in 10.0 mi ENE 8.1 mph - N/A   Scattered Clouds
7:16 AM 42.8 °F 37.0 °F 30.2 °F 61% 29.43 in 10.0 mi East 10.4 mph - N/A   Clear
7:36 AM 42.8 °F 35.8 °F 30.2 °F 61% 29.43 in 10.0 mi East 13.8 mph - N/A   Clear
7:56 AM 42.8 °F 35.8 °F 30.2 °F 61% 29.42 in 10.0 mi East 13.8 mph 18.4 mph N/A   Clear
8:16 AM 44.6 °F 37.4 °F 30.2 °F 57% 29.41 in 10.0 mi East 16.1 mph - N/A   Clear
8:36 AM 44.6 °F 38.4 °F 30.2 °F 57% 29.41 in 10.0 mi East 12.7 mph 18.4 mph N/A   Clear
8:56 AM 44.6 °F 38.1 °F 30.2 °F 57% 29.41 in 10.0 mi East 13.8 mph 20.7 mph N/A   Clear
9:16 AM 44.6 °F 36.9 °F 28.4 °F 53% 29.40 in 10.0 mi East 18.4 mph 23.0 mph N/A   Clear
9:36 AM 44.6 °F 36.9 °F 30.2 °F 57% 29.39 in 10.0 mi East 18.4 mph 23.0 mph N/A   Clear
9:56 AM 44.6 °F 37.4 °F 28.4 °F 53% 29.39 in 10.0 mi East 16.1 mph 23.0 mph N/A   Scattered Clouds
10:16 AM 44.6 °F 36.4 °F 28.4 °F 53% 29.39 in 10.0 mi East 20.7 mph 26.5 mph N/A   Overcast
10:36 AM 44.6 °F 37.2 °F 28.4 °F 53% 29.38 in 10.0 mi East 17.3 mph 24.2 mph N/A   Overcast
11:16 AM 44.6 °F 36.6 °F 28.4 °F 53% 29.36 in 10.0 mi East 19.6 mph 27.6 mph N/A   Mostly Cloudy
11:36 AM 46.4 °F 39.0 °F 28.4 °F 50% 29.35 in 10.0 mi East 19.6 mph 26.5 mph N/A   Overcast
11:56 AM 46.4 °F 39.2 °F 28.4 °F 50% 29.36 in 10.0 mi East 18.4 mph 24.2 mph N/A   Overcast
12:16 PM 46.4 °F 39.8 °F 28.4 °F 50% 29.35 in 10.0 mi East 16.1 mph 23.0 mph N/A   Overcast
12:36 PM 46.4 °F 40.4 °F 28.4 °F 50% 29.35 in 10.0 mi East 13.8 mph 23.0 mph N/A   Overcast
12:56 PM 46.4 °F 39.8 °F 28.4 °F 50% 29.35 in 10.0 mi East 16.1 mph - N/A   Overcast
1:16 PM 46.4 °F 39.5 °F 28.4 °F 50% 29.34 in 10.0 mi ENE 17.3 mph 23.0 mph N/A   Overcast
1:36 PM 46.4 °F 40.1 °F 26.6 °F 46% 29.34 in 10.0 mi East 15.0 mph 25.3 mph N/A   Overcast
1:56 PM 46.4 °F 40.1 °F 26.6 °F 46% 29.34 in 10.0 mi East 15.0 mph - N/A   Overcast
2:16 PM 46.4 °F 40.7 °F 26.6 °F 46% 29.33 in 10.0 mi East 12.7 mph 18.4 mph N/A   Overcast
2:36 PM 44.6 °F 36.6 °F 28.4 °F 53% 29.32 in 10.0 mi ENE 19.6 mph 31.1 mph N/A   Overcast
2:56 PM 44.6 °F 35.7 °F 28.4 °F 53% 29.30 in 10.0 mi ENE 24.2 mph 31.1 mph N/A   Overcast
3:16 PM 44.6 °F 36.4 °F 28.4 °F 53% 29.31 in 10.0 mi East 20.7 mph 32.2 mph N/A   Overcast
3:36 PM 44.6 °F 35.9 °F 26.6 °F 49% 29.31 in 10.0 mi East 23.0 mph 33.4 mph N/A   Overcast
3:56 PM 44.6 °F 36.4 °F 28.4 °F 53% 29.31 in 10.0 mi East 20.7 mph 32.2 mph N/A   Overcast
4:16 PM 42.8 °F 33.8 °F 28.4 °F 57% 29.31 in 10.0 mi East 21.9 mph 31.1 mph N/A   Overcast
4:36 PM 42.8 °F 34.0 °F 28.4 °F 57% 29.31 in 10.0 mi East 20.7 mph 28.8 mph N/A   Overcast
5:16 PM 42.8 °F 35.1 °F 32.0 °F 66% 29.31 in 10.0 mi ENE 16.1 mph 21.9 mph N/A   Overcast
5:36 PM 42.8 °F 37.0 °F 30.2 °F 61% 29.31 in 10.0 mi East 10.4 mph - N/A   Overcast
5:56 PM 44.6 °F 38.4 °F 26.6 °F 49% 29.32 in 10.0 mi ENE 12.7 mph 17.3 mph N/A   Overcast
6:16 PM 44.6 °F 37.8 °F 26.6 °F 49% 29.33 in 10.0 mi East 15.0 mph 24.2 mph N/A   Overcast
6:36 PM 44.6 °F 38.1 °F 26.6 °F 49% 29.34 in 10.0 mi East 13.8 mph 20.7 mph N/A   Overcast
6:56 PM 42.8 °F 36.2 °F 30.2 °F 61% 29.35 in 10.0 mi East 12.7 mph 20.7 mph N/A   Overcast
7:16 PM 41.0 °F 34.7 °F 32.0 °F 70% 29.36 in 10.0 mi East 10.4 mph 17.3 mph N/A   Overcast
7:36 PM 39.2 °F 32.5 °F 33.8 °F 81% 29.37 in 10.0 mi East 10.4 mph - N/A   Overcast
7:56 PM 39.2 °F 33.0 °F 33.8 °F 81% 29.37 in 10.0 mi East 9.2 mph - N/A   Overcast
8:16 PM 39.2 °F 35.0 °F 33.8 °F 81% 29.37 in 10.0 mi East 5.8 mph - N/A   Overcast
8:36 PM 39.2 °F 33.6 °F 33.8 °F 81% 29.37 in 10.0 mi ENE 8.1 mph - N/A   Overcast
8:56 PM 39.2 °F 33.6 °F 32.0 °F 75% 29.38 in 10.0 mi East 8.1 mph - N/A   Overcast
9:16 PM 39.2 °F 33.6 °F 32.0 °F 75% 29.39 in 10.0 mi East 8.1 mph - N/A   Overcast
9:36 PM 39.2 °F 34.2 °F 32.0 °F 75% 29.39 in 10.0 mi East 6.9 mph - N/A   Overcast
9:56 PM 37.4 °F 30.8 °F 33.8 °F 87% 29.40 in 10.0 mi East 9.2 mph - N/A   Overcast
10:16 PM 37.4 °F 29.8 °F 32.0 °F 81% 29.41 in 10.0 mi East 11.5 mph 16.1 mph N/A   Overcast
10:36 PM 37.4 °F 30.3 °F 32.0 °F 81% 29.41 in 10.0 mi East 10.4 mph - N/A   Overcast
10:56 PM 37.4 °F 30.8 °F 32.0 °F 81% 29.42 in 10.0 mi East 9.2 mph - N/A   Overcast
11:16 PM 37.4 °F 32.8 °F 32.0 °F 81% 29.43 in 10.0 mi East 5.8 mph - N/A   Overcast
11:36 PM 37.4 °F 32.8 °F 32.0 °F 81% 29.43 in 10.0 mi East 5.8 mph - N/A   Overcast
11:56 PM 37.4 °F 32.8 °F 32.0 °F 81% 29.44 in 10.0 mi ESE 5.8 mph - N/A   Overcast